Location: Bucharest
(44.4268°N, 26.1025°E)
Time: 20:22:42
(UTC+03:00)

ESTCUBE 1 - Pass Details

Date: 02 July 2022
Orbit: 645 x 657 km, 97.9° (Epoch: 19 August)

Event Time Altitude Azimuth Distance (km) Brightness Sun altitude
Exits shadow 00:34:43 14° 244° (WSW) 1,763 ? -21.7°
Maximum altitude 00:36:16 17° 269° (W) 1,639 ? -21.8°
Drops below altitude 10° 00:39:11 10° 310° (NW) 2,055 ? -21.9°
Sets 00:42:08 0° 330° (NNW) 2,974 ? -22.0°
